📊 Raw Sensor Data

Showing records 40976 to 41000 of 84,974 total

ID Distance (ft) Battery V Battery A Int Temp (°F) Int Humid (%) Ext Temp (°F) Solar V RSSI SNR Time Stamp
44011 15.2 3.98 0 58 42 62 4.50 -71 8 06/20/2025 07:15 AM
44010 15.1 4.03 0 56 42 59 4.50 -72 8 06/20/2025 07:00 AM
44009 15.1 4.00 0 56 41 57 4.50 -70 8 06/20/2025 06:45 AM
44008 15.1 3.92 -13 54 42 60 4.50 -71 8 06/20/2025 06:30 AM
44007 15.0 3.86 0 52 42 56 4.50 -70 8 06/20/2025 06:15 AM
44006 15.0 3.84 -6 51 42 53 4.50 -70 8 06/20/2025 06:00 AM
44005 15.0 3.85 -5 51 43 53 0.80 -70 8 06/20/2025 05:30 AM
44004 15.0 3.85 -5 51 43 53 0.00 -71 8 06/20/2025 05:15 AM
44003 15.0 3.94 -5 51 43 52 0.00 -69 8 06/20/2025 05:00 AM
44002 15.0 3.85 -5 51 43 53 0.00 -72 8 06/20/2025 04:45 AM
44001 15.0 3.85 -5 52 43 53 0.00 -71 8 06/20/2025 04:30 AM
44000 15.0 3.94 -5 52 43 53 0.00 -69 8 06/20/2025 04:15 AM
43999 15.0 3.85 -5 52 43 54 0.00 -71 8 06/20/2025 04:00 AM
43998 15.0 3.94 -5 52 43 54 0.00 -70 8 06/20/2025 03:45 AM
43997 14.9 3.85 -5 52 43 54 0.00 -70 8 06/20/2025 03:30 AM
43996 14.9 3.85 -5 53 43 54 0.00 -70 7 06/20/2025 03:15 AM
43995 14.9 3.94 -5 53 43 54 0.00 -71 8 06/20/2025 03:00 AM
43994 14.9 3.86 -5 53 43 55 0.00 -70 8 06/20/2025 02:45 AM
43993 14.9 3.85 -5 54 43 55 0.00 -69 8 06/20/2025 02:30 AM
43992 14.9 3.85 -5 54 43 55 0.00 -69 8 06/20/2025 02:15 AM
43991 14.9 3.85 -5 54 43 56 0.00 -69 8 06/20/2025 02:00 AM
43990 14.9 3.95 -5 55 43 56 0.00 -71 8 06/20/2025 01:45 AM
43989 14.9 3.85 -5 55 44 56 0.00 -70 8 06/20/2025 01:30 AM
43988 14.9 3.85 -5 55 44 56 0.00 -68 8 06/20/2025 01:15 AM
43987 14.9 3.95 -5 55 44 56 0.00 -69 8 06/20/2025 01:00 AM